Home   Weather   Taloyoak   Past weeks
Flag for Canada

Past Weather in Taloyoak, Nunavut, Canada — Yesterday and Last 2 Weeks

Now
16 °F

Light snow. Fog.


Feels Like: 6 °F
Forecast: 18 / 9 °F
Wind: 7 mph from Southeast

Location: Spence Bay Airport

Current Time: Oct 17, 2019 at 2:19:14 am

Latest Report: Oct 17, 2019 at 1:21 am


Visibility: 10 mi

Pressure: 30.18 "Hg

Humidity: 93%

Dew Point: 14 °F

Location of TaloyoakLocation

Past Weather in Taloyoak — Graph

°F

Taloyoak Temperature Yesterday

Maximum temperature yesterday: 23 °F (at 9:00 am)
Minimum temperature yesterday: 12 °F (at 12:00 am)
Average temperature yesterday: 19 °F

High & Low Weather Summary for the Past Weeks

 TemperatureHumidityPressure
High34 °F (Oct 9, 8:00 pm)93% (Oct 3, 11:37 am)30.26 "Hg (Oct 3, 11:37 am)
Low12 °F (Oct 15, 11:00 pm)69% (Oct 6, 1:00 pm)29.28 "Hg (Oct 9, 8:00 pm)
Average23 °F87%29.85 "Hg
* Reported Oct 3 11:37 am — Oct 17 1:00 am, Taloyoak. Weather by CustomWeather, © 2019

Note: Actual official high and low records may vary slightly from our data, if they occured in-between our weather recording intervals... More about our weather records

Advertising

Taloyoak Weather History for the Previous 24 Hours

Scroll right to see more
 ConditionsComfort  
Time TempWeatherWind HumidityBarometerVisibility
1:00 am
Thu, Oct 17
16 °FLight snow. Ice fog.6 mph93%30.18 "Hg6 mi
12:00 am16 °FLight snow. Ice fog.8 mph86%30.18 "Hg4 mi
11:35 pm
Wed, Oct 16
16 °FLight snow. Ice fog.9 mph86%30.19 "Hg5 mi
11:00 pm16 °FLight snow. Ice fog.7 mph86%30.19 "Hg2 mi
10:00 pm18 °FLight snow. Ice fog.7 mph93%30.19 "Hg2 mi
9:00 pm19 °FLight snow. Ice fog.5 mph93%30.19 "Hg1 mi
8:00 pm19 °FLight snow. Ice fog.3 mph93%30.20 "Hg2 mi
7:41 pm19 °FLight snow. Mostly cloudy.3 mph93%30.20 "Hg2 mi
7:21 pm19 °FLight snow. Mostly cloudy.3 mph86%30.21 "Hg5 mi
7:00 pm18 °FPartly cloudy.5 mph93%30.21 "Hg10 mi
6:00 pm18 °FFog.3 mph86%30.21 "Hg10 mi
5:00 pm16 °FFog.6 mph86%30.22 "Hg10 mi
4:00 pm18 °FMostly cloudy.6 mph86%30.22 "Hg10 mi
3:00 pm19 °FCloudy.7 mph93%30.22 "Hg10 mi
2:00 pm18 °FBroken clouds.8 mph93%30.22 "Hg12 mi
1:00 pm18 °FBroken clouds.10 mph86%30.23 "Hg15 mi
12:34 pm19 °FBroken clouds.8 mph86%30.23 "Hg10 mi
12:00 pm19 °FBroken clouds.5 mph93%30.22 "Hg10 mi
11:38 am21 °FBroken clouds.5 mph86%30.23 "Hg10 mi
11:00 am21 °FLight snow. Ice fog.5 mph93%30.23 "Hg4 mi
10:44 am21 °FLight snow. Ice fog.5 mph93%30.23 "Hg3 mi
10:00 am23 °FLight snow. Ice fog.6 mph93%30.23 "Hg2 mi
9:10 am23 °FLight snow. Ice fog.5 mph93%30.23 "Hg1 mi
9:00 am23 °FLight snow. Ice fog.5 mph93%30.23 "Hg2 mi
8:00 am21 °FLight snow. Ice fog.6 mph93%30.24 "Hg2 mi
7:38 am21 °FLight snow. Ice fog.6 mph93%30.24 "Hg2 mi
7:00 am21 °FLight snow. Fog.6 mph86%30.24 "Hg10 mi
6:00 am18 °FPassing clouds.6 mph93%30.25 "Hg15 mi
5:00 am18 °FPassing clouds.3 mph93%30.25 "Hg15 mi
4:00 am18 °FPassing clouds.3 mph86%30.25 "Hg15 mi
3:00 am14 °FPassing clouds.2 mph92%30.24 "Hg15 mi
2:00 am16 °FPassing clouds.No wind86%30.25 "Hg15 mi
Weather by CustomWeather, © 2019

See weather overview